Location: Unspecified
(0.0000°N, 0.0000°E)
Time: 06:53:47
(UTC+02:00)

ISS - All Passes

Search period start: 30 May 2016 00:00
Search period end: 09 June 2016 00:00
Orbit: 402 x 404 km, 51.6° (Epoch: 29 May)

Date Brightness Start Highest point End Pass type
(mag) Time Alt. Az. Time Alt. Az. Time Alt. Az.
30 May - 07:40:32 10° WNW 07:43:28 32° SW 07:46:26 10° SSE daylight
30 May - 19:13:58 10° SW 19:17:11 57° NW 19:20:23 10° NNE daylight
31 May - 06:47:33 10° NNW 06:50:46 78° NE 06:54:01 10° SE visible
31 May - 18:21:22 10° SSW 18:24:29 42° SE 18:27:35 10° NE daylight
01 Jun - 05:55:21 10° N 05:58:04 25° NE 06:00:49 10° ESE visible
01 Jun - 17:29:41 10° SSE 17:31:45 16° SE 17:33:50 10° E daylight
01 Jun - 19:06:01 10° W 19:08:00 15° NW 19:09:58 10° NNW daylight
02 Jun - 06:38:53 10° WNW 06:41:35 24° SW 06:44:17 10° S visible
02 Jun - 18:12:11 10° SW 18:15:16 40° NW 18:18:21 10° NNE daylight
03 Jun - 05:45:38 10° NW 05:48:52 74° SW 05:52:06 10° SSE night (unlit)
03 Jun - 17:19:20 10° SSW 17:22:34 61° SE 17:25:47 10° NE daylight
04 Jun - 04:53:11 10° NNW 04:56:09 33° NE 04:59:08 10° ESE night (unlit)
04 Jun - 16:27:18 10° S 16:29:50 21° SE 16:32:22 10° ENE daylight
04 Jun - 18:04:57 10° WNW 18:06:04 11° NW 18:07:12 10° NNW daylight
05 Jun - 04:01:51 10° NNE 04:03:25 13° NE 04:04:58 10° E night (unlit)
05 Jun - 05:37:20 10° W 05:39:39 18° SW 05:41:59 10° S night (unlit)
05 Jun - 17:10:26 10° WSW 17:13:20 29° NW 17:16:13 10° N daylight
06 Jun - 04:43:45 10° NW 04:46:55 51° SW 04:50:05 10° SSE night (unlit)
06 Jun - 16:17:21 10° SW 16:20:36 87° SE 16:23:52 10° NE daylight
07 Jun - 03:51:04 10° NNW 03:54:11 47° NE 03:57:20 10° SE night (unlit)
07 Jun - 15:25:01 10° S 15:27:52 27° SE 15:30:43 10° ENE daylight
08 Jun - 02:59:15 10° NNE 03:01:27 17° NE 03:03:39 10° E night (unlit)
08 Jun - 04:35:55 10° W 04:37:41 14° SW 04:39:28 10° SSW night (unlit)
08 Jun - 14:34:18 10° SE 14:35:06 11° SE 14:35:55 10° ESE daylight
08 Jun - 16:08:45 10° WSW 16:11:22 22° NW 16:13:57 10° N daylight
